Regional Weather Roundup
Issued by NWS Grand Forks, ND

Home | Current Version | Previous Version | Graphics & Text | Print | Product List | Glossary On
Versions: 1 2 3 4 5 6 7 8 9 10 11 12 13 14 15 16 17 18 19 20 21 22 23 24 25 26 27 28 29 30 31 32 33 34 35 36 37 38 39 40 41 42 43 44 45 46 47 48 49 50
104
ASUS43 KFGF 221510
RWRFGF
PRAIRIE TO PINES  WEATHER ROUNDUP
NATIONAL WEATHER SERVICE EASTERN NORTH DAKOTA/GRAND FORKS ND
1000 AM CDT TUE AUG 22 2017

 **SATELLITE DATA USED TO AUGMENT SKY COVER AT AUTOMATED STATIONS**
 *****  WEATHER ACROSS EASTERN NORTH DAKOTA  *****

CITY           SKY/WX    TMP DP  RH WIND       PRES   REMARKS
GRAND FORKS    FAIR      68  49  50 NW13      30.05S
GRAND FRKS AFB FAIR      67  47  48 NW14      30.06S
DEVILS LAKE    FAIR      63  46  54 W15       30.13S
FARGO          FAIR      65  51  60 NW12      30.08R
WAHPETON ARPT  FAIR      63  48  59 NW9       30.11R
$$

 ***** WEATHER ACROSS CENTRAL AND WESTERN NORTH DAKOTA  *****

CITY           SKY/WX    TMP DP  RH WIND       PRES   REMARKS
BISMARCK       FAIR      62  48  60 W5        30.21R
MINOT          FAIR      67  42  40 W14       30.17S
JAMESTOWN      FAIR      65  50  58 NW10      30.15R
MINOT AFB        N/A     66  40  38 NW14      30.16R
GARRISON         N/A     65  44  46 NW10      30.19S
WILLISTON      FAIR      59  44  57 S6        30.21S
DICKINSON      FAIR      66  40  38 S3        30.22S
HETTINGER      FAIR      64  43  46 CALM      30.25S
$$

 *****  OTHER AIRPORT OBSERVATIONS IN OUR AREA  *****

CITY           SKY/WX    TMP DP  RH WIND       PRES   REMARKS
WALHALLA       FAIR      64  61  88 NW14      30.05S
GRAFTON AIRPOR FAIR      66  48  52 NW15      30.06R
VALLEY CITY AR   N/A     63  50  63 NW10      30.15S
CANDO          FAIR      64  46  52 W14       30.15R
CAVALIER APRT  FAIR      63  48  59 NW12G17   30.04R
GWINNER        SUNNY     63  50  63 W9        30.14R
SHEYENNE NWR     N/A     64  49  59 NW9       29.95S
ROLLA          FAIR      64  43  45 NW14      30.14R
 ***** THE ABOVE OBSERVATIONS ARE NON NWS ARE NOT QUALITY
       CONTROLLED AND MAY MIS-REPORT RAIN FOR SNOW...
$$

  *****  WEATHER ACROSS NORTHERN MINNESOTA  *****

CITY           SKY/WX    TMP DP  RH WIND       PRES   REMARKS
FLAG ISLAND    FAIR      61  52  72 NW10      29.92S
WARROAD        FAIR      63  54  72 W14G21    29.96S
ROSEAU         FAIR      61  54  77 W12G17    29.98S
HALLOCK        FAIR      63  48  59 NW13      30.02S
THF RVR FALLS  FAIR      60  48  64 W15       30.04S
BAUDETTE       PTSUNNY   60  54  80 W12       29.95R
WASKISH        PTSUNNY   61  54  77 W13G18    29.97S
CROOKSTON      FAIR      63  48  59 NW14      30.05S
STEPHEN NDAWN    N/A     63  50  63 NW12        N/A
GREENBUSH NDAW   N/A     61  50  67 NW9         N/A
$$
  *****  WEATHER ACROSS CENTRAL AND WEST MINNESOTA  *****

CITY           SKY/WX    TMP DP  RH WIND       PRES   REMARKS
FOSSTON        FAIR      59  52  77 W9        30.05R
BEMIDJI        FAIR      61  50  67 W12       30.01S
PARK RAPIDS    FAIR      62  52  69 NW12      30.04R
ELBOW LAKE     FAIR      59  51  75 NW9       30.11R
WADENA         FAIR      61  52  72 W7        30.05S
DETROIT LAKES  FAIR      59  50  72 NW9       30.08R
MOORHEAD       FAIR      63  52  67 NW9       30.09R
FERGUS FALLS   FAIR      59  52  77 NW10      30.10R
MORRIS MN      FAIR      63  52  67 NW10G16   30.10S
STAPLES        FAIR      63  52  67 W13       30.04S
$$
  *****  WEATHER ELSEWHERE ACROSS MINNESOTA  *****

CITY           SKY/WX    TMP DP  RH WIND       PRES   REMARKS
DULUTH         FAIR      61  54  77 NW10      29.93S
INTRNTL FALLS  FAIR      59  54  83 W8        29.91S
ELY              N/A     59  48  67 NW13      29.89S
CLOQUET        FAIR      63  52  67 W10G16    29.95S
WHEATON        FAIR      64  48  55 W9        30.13S
BRAINERD       FAIR      62  52  69 W12       30.02S
HIBBING        FAIR      60  52  74 NW15G22   29.94R
ALEXANDRIA     FAIR      62  52  69 W13       30.09S
SAINT CLOUD    FAIR      65  53  65 NW10      30.05R
MINNEAPOLIS    FAIR      66  52  60 NW15G21   30.04R
$$

  *****  WEATHER ACROSS SOUTH DAKOTA  *****

CITY           SKY/WX    TMP DP  RH WIND       PRES   REMARKS
SIOUX FALLS    FAIR      67  56  67 NW8       30.18R
BROOKINGS      FAIR      64  52  64 NW12      30.18R
WATERTOWN      FAIR      64  50  60 NW12      30.16R
HURON          FAIR      62  51  67 N5        30.20R
SISSETON         N/A     68  51  54 W10       30.12R
ABERDEEN       FAIR      65  49  56 W12       30.18R
MITCHELL       FAIR      64  52  64 W7        30.21R
PIERRE         FAIR      62  52  69 W6        30.22R
MOBRIDGE       FAIR      62  51  67 W6        30.20R
RAPID CITY     FAIR      65  45  48 SE12      30.25S
$$

  *****  SOME WEATHER IN NEARBY STATES *****

CITY           SKY/WX    TMP DP  RH WIND       PRES   REMARKS
GLASGOW MT     NOT AVBL
GREAT FALLS MT FAIR      62  36  37 SW5       30.18S
CHEYENNE WY    CLOUDY    60  55  83 S15       30.37R
SCOTTSBLUFF NE FAIR      64  53  67 E13       30.30S
OMAHA NE       FAIR      69  58  67 N9        30.16R
DES MOINES IA  FAIR      69  59  70 NW16      30.07R
DAVENPORT IA     N/A     69  62  78 NW10      29.99R
CHICAGO IL     CLOUDY    74  64  71 W16       29.86S
EAU CLAIRE WI  FAIR      65  51  60 NW13G24   29.97R
LA CROSSE WI   FAIR      71  57  61 NW17      29.96S
$$

  *****  SOME NATIONAL WEATHER *****

CITY           SKY/WX    TMP DP  RH WIND       PRES   REMARKS
LA GUARDIA NY  PTSUNNY   82  74  76 SW10      29.98F
RALEIGH NC     FAIR      87  74  64 VRB5      30.11F HX  95
ATLANTA GA     FAIR      85  73  67 W3        30.15S HX  91
NEW ORLEANS LA PTSUNNY   87  77  72 N7        30.09R HX  99
OKLAHOMA CITY  PTSUNNY   80  69  69 SW10      30.05S
ALBUQUERQUE NM FAIR      69  54  58 N6        30.32R
SALT LAKE CITY PTSUNNY   77  49  37 SE13      30.21R
LOS ANGELES CA FAIR      68  64  87 W5        30.02R
BOISE ID       FAIR      69  39  33 SE3       30.12R
SEATTLE WA     FAIR      64  55  72 NW3       30.03R
$$

*** WEATHER ACROSS MANITOBA...SASKATCHEWAN AND ONTARIO ***
                ***ONTARIO***

CITY           SKY/WX    TMP DP  RH WIND       PRES   REMARKS
GERALDTON      CLOUDY    55  54  94 NW10      29.65F
THUNDER BAY    PTSUNNY   61  50  67 W16G24    29.77F
SIOUX LOOKOUT  PTSUNNY   59  50  72 NW13G21   29.82S
TORONTO        CLOUDY    75  72  88 SW12G20   29.74F
BIG TROUT LK   LGT RAIN  50  50 100 N13G21    29.80R FOG
PICKLE LAKE    LGT RAIN  54  52  94 NW8       29.75S
DRYDEN         PTSUNNY   57  52  82 W12G17    29.86R
KENORA         CLOUDY    57  54  88 NW12      29.91S
$$
                *** MANITOBA***

CITY           SKY/WX    TMP DP  RH WIND       PRES   REMARKS
BRANDON        SUNNY     63  46  55 W10       30.11R
DAUPHIN        SUNNY     64  48  55 NW8       30.09R
ISLAND LAKE    CLOUDY    54  52  94 NW10      29.95R FOG
PILOT MOUND      N/A     63  46  55 W9          N/A
THE PAS        MOSUNNY   61  54  77 NW7       30.08R
THOMPSON       NOT AVBL
WINNIPEG       MOSUNNY   66  54  63 NW16      30.00R
LYNN LAKE        N/A     55  50  82 MISG      30.08R
CHURCHILL      PTSUNNY   48  45  87 N14       30.09R
$$
                ***SASKATCHEWAN***

CITY           SKY/WX    TMP DP  RH WIND       PRES   REMARKS
ESTEVAN        MOSUNNY   61  41  48 W6        30.19S
KINDERSLEY     PTSUNNY   61  43  51 SW7       30.12S
LLOYDMINSTER   CLOUDY    59  54  82 W6        30.08R
PRINCE ALBERT  PTSUNNY   55  48  76 VRB2      30.12F
REGINA         PTSUNNY   59  37  44 CALM      30.18S
YORKTON        SUNNY     64  48  55 NW5       30.14S
N. BATTLEFORD  PTSUNNY   61  46  59 SW3       30.09S
LA RONGE       MOSUNNY   64  52  63 S3        30.06R
SASKATOON      PTSUNNY   57  43  58 SE10      30.12F
SWIFT CURRENT  SUNNY     68  32  26 SW18      30.15F
$$
NOTE: THESE ARE AUTOMATED STATIONS WITH LIMITED QUALITY CONTROL
      "FAIR" INDICATES FEW OR NO CLOUDS BELOW 12,000 FEET WITH NO
      SIGNIFICANT WEATHER AND/OR OBSTRUCTIONS TO VISIBILITY.
      SKY/WX - SKY CONDITION AND SIGNIFICANT WEATHER.
      TMP - AIR TEMPERATURE.    DP   - DEWPOINT TEMPERATURE.
      RH  - RELATIVE HUMIDITY.  PRES - PRESSURE.
      HX  - HEAT INDEX.         WCI  - WIND CHILL INDEX.
$




USA.gov is the U.S. government's official web portal to all federal, state and local government web resources and services.